FENGYUN 1C DEB, 29907

Orbit data source: Space-Track

FENGYUN 1C DEB, 29907 is space debris in SSO originally from a launch on Mon, 10 May 1999 UTC launched from the Taiyaun Space Center, China (TSC). Fengyun 1C debris stems from the Chinese weather satellite Fengyun-1C, which was intentionally destroyed by a Chinese anti-satellite missile in 2007. This event dramatically increased the amount of space debris, with thousands of trackable fragments posing hazards to satellites and human spaceflight. The Fengyun 1C debris cloud has become a focal point in discussions about space sustainability and the need for international regulations to prevent the creation of new debris.

Loading next visibility...
Identifier
29907, 1999-025HD
Orbit
SSO
Country
Flag of CNCN / PRC
Related business
Manufacturer
Unknown
Mission
Spacecraft
Bus & Motor
Unknown
Mass
Unknown
Launch date (UTC)
1999-05-10 (27 years ago)
Launch vehicle
Unknown
Launch site
Taiyaun Space Center, China (TSC)
Object type
Payload
Rocket body
Debris
Shape & HBR
Unknown shape, 0.1 m
Radar Cross Section
Medium (>0.1 m² and <1 m²)

Expand to show TLE details & history
Last TLE update: 10 hours ago

TLE from 10 hours ago
0 FENGYUN 1C DEB
1 29907U 99025HD  26167.46966146  .00001742  00000-0  93361-3 0  9995
2 29907  99.0982 241.9925 0084290  89.5990 282.4143 14.12596308992206
Epoch: 2026-06-16T11:16Z
TLE epoch observation values (Epoch: 2026-06-16T11:16:18.750Z)
Latitude
10.87817°
Longitude
166.41889°
Altitude
840.028 km
Speed
7.44 km/s
True Right ascension
16h 00m 57s
True Declination
10° 48' 55"
Sunlit
Object was in full shadow at epoch
Visualization orbit readout
Latitude
Unknown
Longitude
Unknown
Altitude
Unknown
Speed
Unknown
Apparent Right ascension
Unknown
Apparent Declination
Unknown
Sunlit
N/A
Visualization observer readout
Local Sidereal Time
07:34:37
Azimuth
Unknown
Elevation
Unknown
Doppler factor
Unknown
Orbital elements
Apogee altitude
908.594 km
Perigee altitude
786.781 km
Semi-major axis
7,225.825 km
Eccentricity
0.00843
Inclination
99.0982°
RAAN
241.9925°
Arg. of periapsis
89.599°
True anomaly
281.46889°
Mean anomaly
282.4143°
Eccentric anomaly
281.94181°
Mean motion
3.53356 °/min
Orbital period
101.88 mins
BSTAR
0.00093361
Loading maneuver chart data...
Computing Atmospheric mass density...

Documentation

Showing up to 5 results
|